Regional Weather Roundup
Issued by NWS

Home | Current Version | Previous Version | Text Only | Print | Product List | Glossary Off
Versions: 1 2 3 4 5 6 7 8 9 10 11 12 13 14 15 16 17 18 19 20 21 22 23 24 25 26 27 28 29 30 31 32 33 34 35 36 37 38 39 40 41 42 43 44 45 46 47 48 49 50

068
ASUS43 KFSD 271502
RWRSD

WEATHER ROUNDUP FOR SOUTH DAKOTA
NATIONAL WEATHER SERVICE SIOUX FALLS SD
1000 AM CDT THU APR 27 2017

NOTE: "FAIR" INDICATES FEW OR NO CLOUDS BELOW 12,000 FEET WITH NO
SIGNIFICANT WEATHER AND/OR OBSTRUCTIONS TO VISIBILITY.


SDZ001>005-009-010-012>017-271600-
NORTHWEST AND NORTH CENTRAL SOUTH DAKOTA

CITY           SKY/WX    TMP DP  RH WIND       PRES   REMARKS
BUFFALO          N/A     31  28  89 E12       29.60F WCI  22
FAITH            N/A     34  27  75 NE9       29.69S WCI  27
MOBRIDGE       CLOUDY    38  26  62 N8        29.70S
$$

SDZ012>016-024>037-041>051-057-063-072>074-271600-
SOUTHWEST AND SOUTH CENTRAL SOUTH DAKOTA

CITY           SKY/WX    TMP DP  RH WIND       PRES   REMARKS
RAPID CTY ARPT MOSUNNY   35  30  82 SE6       29.66S
PIERRE         CLOUDY    35  26  69 N8        29.72R WCI  29
CUSTER         CLOUDY    34  26  72 E9        29.58S WCI  27
ELLSWORTH AFB  MOSUNNY   35  33  93 S3        29.65S
PHILIP         CLOUDY    31  29  92 NE10      29.71R WCI  22
PINE RIDGE     SUNNY     40  33  76 E10       29.64R
SPEARFISH      FAIR      30  30 100 W5        29.62S WCI  25
WINNER         CLOUDY    35  28  75 N7        29.73R WCI  29
$$

SDZ004>011-016>023-039-040-271600-
NORTHEAST SOUTH DAKOTA

CITY           SKY/WX    TMP DP  RH WIND       PRES   REMARKS
ABERDEEN       CLOUDY    32  26  78 NW13      29.72S WCI  22
WATERTOWN      CLOUDY    29  22  75 N23       29.65S WCI  15
BROOKINGS      CLOUDY    30  25  81 NW17      29.66R WCI  18
SISSETON         N/A     31  23  72 N24G30    29.67S WCI  17
$$

SDZ017-020-022-023-036>040-048>070-271600-
SOUTHEAST SOUTH DAKOTA

CITY           SKY/WX    TMP DP  RH WIND       PRES   REMARKS
SIOUX FALLS    CLOUDY    34  25  69 NW15      29.69R WCI  24
HURON          CLOUDY    35  26  69 N17       29.72R WCI  25
CHAMBERLAIN    CLOUDY    37  29  75 NW5       29.73R
MITCHELL       CLOUDY    34  27  75 N14       29.73R WCI  25
YANKTON        CLOUDY    36  25  64 NW15      29.73R
$$

ABBREVIATIONS USED IN REMARKS
   TC - TEMPERATURE IN CELSIUS
  WCI - WIND CHILL INDEX
   HX - HEAT INDEX
  VSB - VISIBILITY





USA.gov is the U.S. government's official web portal to all federal, state and local government web resources and services.